Helicity
300 284 298 288 236 196 145 103 102 103 91 89 85 74 69 66 64 63 70 71 75 74 87 81 75 94 48 70 39 65 55 34 35 40 50 44 66 54 79 60 48 54 33 31 19 15 22
306 279 253 243 234 248 226 226 230 202 160 114 97 87 80 73 75 73 80 83 87 95 93 94 90 99 17 44 59 71 61 40 40 48 56 62 44 41 54 62 70 57 23 3 11 58 64
63 169 156 213 186 175 181 213 185 191 174 174 158 125 101 74 74 91 91 96 94 128 84 88 82 10 -9 7 79 71 52 52 66 63 49 38 53 73 60 72 64 55 42 15 49 115 124
30 33 61 27 98 139 130 117 76 124 123 105 121 119 128 78 66 75 93 146 149 122 77 60 40 -19 -20 49 58 21 45 63 65 38 22 47 60 64 71 80 105 91 96 85 116 151 175
81 47 75 129 45 -21 1 -10 79 65 87 106 82 81 53 70 71 74 161 174 125 70 38 5 -36 -17 2 61 46 33 91 110 88 24 9 60 85 98 130 133 127 152 109 106 118 203 256
137 132 126 167 203 131 102 62 128 113 102 108 131 102 138 111 115 162 135 91 45 43 26 20 74 41 43 69 78 53 69 114 82 49 43 87 120 133 170 169 138 126 132 142 135 155 209
107 97 121 138 179 151 142 162 150 153 134 148 137 118 131 126 144 147 190 153 110 100 75 113 68 46 133 132 36 88 90 133 111 70 77 112 175 117 103 140 188 171 156 149 119 125 189
112 105 107 130 146 201 173 144 140 143 177 117 143 102 119 127 144 112 171 208 184 147 145 96 110 128 85 142 192 167 155 137 121 110 115 170 125 108 155 176 159 164 179 145 160 154 156
71 88 103 118 129 147 183 189 138 140 188 181 131 107 117 133 159 219 190 186 191 100 110 0 81 113 88 145 147 70 207 168 148 103 131 170 117 120 155 192 158 180 183 161 155 149 142
99 98 101 96 110 124 161 173 178 121 182 195 154 130 147 192 197 200 188 161 152 87 115 95 95 52 128 187 162 122 184 254 188 92 152 131 104 108 155 147 178 184 122 146 137 153 132
111 103 105 100 98 104 120 141 145 148 147 182 178 140 126 171 175 170 115 120 115 122 166 82 129 105 112 132 214 171 120 271 265 229 200 154 152 196 169 123 161 138 133 147 149 170 201
67 93 108 117 112 119 103 80 112 132 136 149 172 116 117 228 198 128 125 140 182 291 214 169 134 129 151 99 186 161 172 199 150 189 186 156 199 191 111 111 126 131 171 194 183 193 227
71 73 80 87 124 111 112 94 106 118 123 122 135 112 141 146 136 125 179 210 373 353 271 208 190 149 152 177 192 188 207 220 236 257 201 169 135 133 126 133 128 190 218 216 208 235 202
38 69 79 76 83 108 108 98 114 136 123 133 144 120 160 124 85 115 200 338 395 264 308 251 152 181 188 201 207 233 260 267 203 222 187 181 218 112 116 136 150 164 171 234 229 210 162
103 62 81 88 87 89 114 121 104 130 146 161 173 191 185 123 67 146 232 425 359 270 190 297 257 228 198 189 202 237 211 185 101 150 163 185 176 106 108 111 118 123 164 108 196 196 235
138 128 101 102 83 91 93 98 122 112 144 155 250 279 219 139 95 200 257 310 293 289 290 264 218 190 181 180 235 210 187 135 131 123 148 151 211 153 171 161 168 124 101 197 180 210 212
156 147 112 126 103 70 91 93 90 110 114 131 244 331 218 174 195 299 273 229 199 199 277 234 236 239 226 220 228 223 167 151 101 129 174 185 166 154 169 117 120 152 163 194 149 191 204
124 146 138 158 126 90 97 78 95 94 124 147 282 382 228 210 366 358 277 255 320 205 169 225 242 263 237 232 210 138 146 158 170 124 149 145 151 168 137 165 148 153 139 177 220 177 221
132 123 85 106 117 102 85 93 85 87 130 287 341 332 227 260 396 240 351 266 177 209 237 243 208 207 188 186 182 134 159 158 181 129 127 153 191 216 195 178 178 148 172 192 229 257 187
55 103 87 74 79 99 87 78 94 94 131 235 339 394 331 287 276 304 258 215 229 146 179 140 193 159 161 116 108 145 130 150 149 166 226 233 242 195 177 146 140 155 168 183 223 257 196
47 57 78 90 66 79 60 82 60 106 137 265 261 350 348 437 285 240 321 253 200 204 136 147 170 182 159 161 176 146 132 129 139 179 197 247 214 193 211 182 153 147 180 193 242 244 310
28 59 73 87 96 93 67 -29 99 40 134 291 307 401 442 350 277 241 313 194 232 159 184 187 198 117 159 168 148 103 88 90 78 125 198 239 199 187 152 151 114 126 172 149 201 208 242
38 58 66 75 75 75 97 82 82 87 162 388 285 273 365 288 300 271 217 191 162 214 148 168 117 143 123 97 73 79 61 66 83 107 174 228 239 218 206 115 91 74 130 144 176 173 183
65 56 55 66 61 56 78 85 131 168 190 288 363 369 398 348 303 229 176 176 230 125 154 135 104 125 136 118 76 69 125 151 144 153 149 143 204 164 123 80 69 96 106 106 133 109 127
56 54 48 62 65 58 75 46 0 94 159 274 371 335 357 309 205 239 179 161 135 195 149 108 135 153 68 101 89 96 184 158 155 177 181 186 204 152 133 141 135 104 117 102 99 52 69
30 41 54 72 58 56 68 40 19 103 111 245 261 244 275 250 180 148 160 172 157 155 146 156 171 83 101 131 121 113 127 154 274 172 213 203 216 202 231 137 120 91 115 70 54 49 40
-14 37 53 52 48 49 58 54 32 41 109 211 187 220 222 170 152 154 148 130 170 155 104 104 157 110 136 196 205 148 163 93 96 165 149 204 209 182 200 193 127 111 127 107 121 26 54
-38 -22 39 31 39 48 62 57 49 42 31 123 175 172 187 135 101 198 167 113 173 153 153 93 176 151 195 171 165 158 158 162 160 144 156 180 144 195 209 194 63 154 146 84 58 57 57
-19 -29 2 25 36 52 72 47 36 23 30 170 230 175 189 86 -10 -39 22 171 103 137 161 135 120 129 131 169 171 167 160 152 140 148 172 168 253 185 208 149 171 62 71 108 80 74 42
Wind_Speed
56 56 56 54 56 56 57 59 56 53 53 54 54 53 52 52 51 51 53 54 56 56 58 63 66 70 55 52 45 37 34 37 37 37 38 37 36 35 37 35 38 32 36 43 46 52 46
64 64 64 62 62 59 59 59 56 54 55 57 58 56 55 57 56 54 49 53 53 50 54 60 61 62 48 55 33 32 33 35 35 36 37 35 35 34 36 34 34 35 43 53 49 52 43
65 64 65 65 61 61 62 63 62 60 58 57 57 56 58 57 54 50 50 51 49 47 51 54 58 50 47 51 31 33 34 32 31 33 34 33 35 35 35 37 34 36 47 53 47 39 38
69 64 67 62 67 68 68 63 62 59 61 62 58 58 59 56 50 48 47 47 42 45 49 51 50 43 49 32 36 35 31 40 29 28 27 34 32 35 33 30 41 47 45 44 39 42 42
69 66 73 70 76 65 64 65 62 64 65 60 58 61 61 54 53 43 45 38 35 40 47 48 42 44 57 46 32 31 17 20 26 25 31 33 36 35 36 42 50 47 49 47 47 39 45
74 73 76 77 75 68 66 65 65 66 60 61 67 66 60 58 52 48 40 34 39 46 40 41 44 51 45 41 31 26 18 19 28 31 35 34 36 39 39 39 56 50 52 50 51 43 63
76 72 72 74 72 69 64 61 64 66 66 62 60 61 56 54 52 38 35 42 59 61 49 51 47 43 43 41 29 25 22 25 33 37 43 40 43 43 38 37 43 49 55 60 56 55 63
78 74 70 72 70 64 63 61 61 64 64 59 54 57 53 49 44 38 42 52 52 52 78 53 61 66 60 47 50 35 25 34 35 45 40 49 54 42 40 42 48 53 59 64 60 51 50
77 76 73 71 69 67 64 61 61 55 57 57 50 49 45 40 32 37 46 47 39 47 70 72 58 62 52 44 54 46 33 35 43 47 44 53 46 39 38 45 52 55 57 61 68 58 51
75 74 72 71 68 66 65 62 60 56 53 53 50 46 38 24 39 40 45 34 34 42 70 71 56 52 37 35 58 39 29 36 44 52 46 52 47 50 53 58 52 67 49 55 57 59 74
78 75 71 70 68 68 63 65 60 56 53 54 51 44 29 27 38 42 36 23 29 35 74 46 44 31 28 27 40 37 24 28 43 40 37 47 46 46 46 48 37 50 43 49 52 59 68
77 76 73 69 67 65 64 62 61 57 52 51 50 42 32 40 40 36 26 18 25 50 74 53 38 39 31 32 37 28 24 22 26 36 43 46 39 42 40 37 39 40 51 55 56 60 82
76 76 74 68 64 65 61 58 59 58 56 51 49 42 36 36 49 24 15 21 53 72 54 58 54 42 41 39 40 34 29 31 39 49 58 55 53 47 44 55 49 46 52 71 75 70 79
80 76 75 70 66 64 62 62 62 59 55 50 47 42 41 41 34 22 27 45 75 69 68 49 45 44 50 40 44 38 36 43 41 44 50 56 62 39 35 37 42 38 40 55 81 81 82
82 80 75 72 68 64 61 54 55 56 52 49 42 43 44 42 33 30 42 70 79 71 56 58 47 55 54 48 44 43 46 47 38 32 49 49 56 39 33 31 34 40 45 44 60 63 78
80 79 78 73 68 65 61 57 51 46 46 45 47 51 55 38 32 38 53 72 73 57 51 49 65 53 61 50 48 44 45 42 45 34 34 44 58 40 37 34 41 42 35 54 54 78 87
73 72 75 74 72 69 64 60 54 51 46 41 47 59 51 33 31 52 73 72 66 54 50 53 52 53 49 47 45 48 51 46 41 36 32 34 43 48 40 43 46 45 51 51 55 60 81
72 73 71 73 72 73 68 63 58 52 49 46 52 71 46 40 62 61 73 61 58 53 49 50 48 48 45 42 46 47 50 45 45 35 38 37 42 56 50 45 44 48 53 53 63 73 72
70 71 73 73 75 70 69 68 62 56 51 52 60 61 46 52 68 79 63 63 58 58 57 51 54 45 40 42 50 43 44 45 47 44 43 38 48 63 61 53 48 54 52 52 57 64 79
71 69 70 71 66 69 64 64 66 61 54 57 56 70 59 62 70 68 72 73 70 60 57 51 51 50 54 54 51 53 49 47 45 43 42 37 50 57 66 60 53 58 58 50 54 76 88
79 72 74 73 72 68 69 64 66 63 55 59 68 66 61 74 81 76 66 63 68 62 53 51 55 50 48 54 51 55 51 50 46 45 42 42 58 55 57 56 61 65 65 58 61 67 74
90 82 77 75 78 74 75 69 60 62 55 62 77 61 62 63 68 75 70 75 66 62 55 56 55 49 53 59 52 56 51 53 52 43 42 40 53 56 71 63 60 70 67 68 66 65 58
88 81 76 78 79 80 82 73 80 66 58 58 63 63 60 72 65 68 76 68 67 58 58 60 52 59 58 56 53 54 45 47 44 46 45 46 54 55 69 58 65 78 66 58 57 49 49
92 84 83 81 85 83 80 75 78 75 65 53 57 53 66 73 73 74 72 73 67 59 66 50 59 59 51 44 44 46 47 52 49 47 40 42 38 44 60 57 73 64 51 51 52 52 41
90 90 87 86 87 87 83 77 79 78 63 48 47 55 62 66 72 72 71 69 73 69 63 67 67 44 36 46 53 53 51 52 48 40 37 39 38 50 58 63 77 79 57 50 50 59 46
98 98 96 91 96 91 89 80 84 83 65 60 45 51 46 67 67 60 69 64 66 71 77 69 48 44 42 42 42 49 47 42 43 41 38 37 43 44 49 63 70 57 45 35 40 64 35
105 99 92 97 100 95 89 86 83 80 72 56 56 43 46 57 59 55 62 63 51 53 63 54 52 48 38 43 48 50 48 39 43 41 42 39 45 46 50 55 64 49 37 32 50 54 31
90 104 98 101 95 91 88 91 86 72 69 54 51 46 50 55 49 46 56 53 52 53 57 48 41 48 42 46 45 44 47 43 48 43 44 42 43 45 46 54 83 28 26 35 38 40 31
90 92 109 104 97 91 90 87 81 79 68 56 54 44 46 58 50 43 46 51 52 48 47 42 45 39 36 40 42 42 49 48 51 61 43 53 41 44 35 49 42 17 35 29 33 37 31
Wind_Direction
277 279 280 280 280 279 279 278 279 281 283 286 289 292 296 299 303 307 310 313 314 320 323 321 320 319 328 317 318 334 340 344 344 341 340 336 339 333 335 344 341 343 336 328 326 321 326
277 277 277 278 279 279 279 280 281 282 283 285 287 290 293 295 297 301 308 310 313 320 321 322 322 324 322 310 336 339 336 339 338 336 329 337 335 341 338 342 342 341 329 318 324 320 328
277 278 276 277 277 278 278 278 280 281 282 284 288 292 293 294 297 298 302 306 308 313 318 323 322 328 316 303 333 328 324 326 341 342 338 338 337 341 341 340 347 342 327 323 327 335 335
275 276 275 277 278 276 278 277 279 281 280 281 285 290 291 296 300 297 299 303 309 308 313 320 327 327 308 333 326 315 313 303 330 341 353 334 339 334 339 347 333 324 327 327 332 333 334
275 276 273 277 276 274 276 274 275 276 278 282 284 283 285 291 297 298 295 306 309 316 309 315 321 319 303 317 324 319 322 315 328 353 342 340 332 333 333 325 321 321 315 316 319 333 331
274 275 274 271 274 274 274 273 275 275 281 279 279 280 282 284 287 290 295 303 304 307 314 314 307 305 304 307 335 341 328 328 327 333 336 336 334 324 325 321 312 316 314 316 315 322 318
273 272 273 272 273 272 273 274 277 278 280 278 280 279 280 279 281 284 290 291 291 294 293 288 293 300 310 318 322 318 325 320 320 319 318 328 317 313 318 318 318 317 313 311 315 316 316
271 270 270 270 270 273 274 275 278 278 282 278 277 278 279 278 279 279 280 282 290 296 287 290 285 285 286 299 296 300 312 304 307 304 316 314 306 311 316 317 314 313 311 311 316 322 318
269 268 268 269 269 269 272 277 279 279 281 280 278 278 279 279 279 277 276 281 299 302 286 287 286 284 284 280 279 274 289 298 298 299 303 300 310 332 321 313 310 309 308 311 310 319 317
267 267 266 266 267 268 270 272 277 277 277 280 280 277 275 271 276 277 276 283 299 304 286 287 289 293 286 284 287 282 263 282 293 294 297 301 305 302 305 305 307 305 312 312 312 314 310
266 265 265 265 264 265 267 269 272 275 276 276 277 275 263 256 278 270 284 276 293 300 281 295 290 307 302 281 301 306 294 270 277 290 301 304 312 315 312 313 316 312 319 317 315 312 312
265 264 264 263 262 262 264 266 267 270 273 274 275 270 254 266 277 282 277 257 285 274 273 287 295 295 293 287 303 312 310 309 298 292 297 299 313 312 315 320 320 321 317 315 314 312 304
265 263 262 261 259 259 260 263 263 265 269 270 272 266 254 263 265 271 241 245 263 264 284 283 285 289 289 287 294 299 290 290 294 294 295 302 296 300 304 303 309 309 309 306 306 306 304
263 263 261 259 257 257 257 259 262 262 264 266 268 263 258 260 268 247 236 250 260 269 265 290 292 288 283 289 287 292 291 287 294 301 302 301 303 312 317 304 310 310 306 304 303 304 306
261 261 260 257 255 255 255 255 257 259 257 260 262 260 261 254 254 245 237 247 261 267 277 272 287 282 280 284 292 286 288 291 292 290 297 303 306 319 318 320 317 314 309 315 307 308 306
256 256 254 253 252 252 252 252 248 252 255 252 255 256 257 247 246 239 241 254 262 268 279 280 270 280 278 280 282 285 289 303 294 287 293 305 303 310 314 318 319 312 317 312 313 307 305
249 251 250 251 249 250 250 248 245 243 248 245 253 253 254 237 241 244 246 253 263 266 274 278 277 279 284 283 281 283 291 298 300 300 292 299 302 307 309 306 306 311 309 311 311 308 308
249 249 247 249 249 247 246 246 243 239 239 240 250 247 250 228 238 248 247 254 262 269 268 275 283 281 282 287 289 286 285 294 307 299 295 295 305 298 300 309 311 309 307 307 304 307 307
248 248 246 248 249 248 243 242 240 235 228 240 248 247 250 238 240 242 250 248 256 267 265 269 272 279 287 287 289 293 297 301 299 294 298 294 298 296 301 305 308 305 307 308 309 310 304
250 249 247 245 246 244 243 242 236 232 224 234 248 243 246 244 243 248 244 248 253 261 269 265 277 274 278 279 286 291 293 302 303 299 301 300 293 291 291 299 308 306 307 309 309 306 308
250 249 246 246 246 245 243 236 242 228 219 229 239 247 245 241 237 240 246 253 249 256 261 263 271 272 276 277 280 284 290 297 302 302 302 297 293 295 297 302 304 304 305 307 305 305 304
248 248 248 247 246 245 243 238 229 226 215 236 238 247 245 248 242 238 246 246 252 251 260 263 269 270 270 274 279 286 291 292 292 299 299 302 293 298 296 302 304 302 305 307 307 306 300
248 246 247 246 246 245 239 234 232 223 209 240 238 242 249 243 242 238 237 244 250 254 263 263 268 269 273 278 285 287 290 292 293 294 293 295 297 298 297 303 307 302 309 313 317 317 317
247 246 245 246 244 242 236 232 233 223 212 239 230 240 242 246 240 241 244 246 252 252 255 270 263 268 279 287 294 293 291 288 285 290 291 296 296 300 302 306 300 310 323 321 316 318 319
244 242 242 242 241 238 234 228 231 219 206 235 229 238 239 247 243 247 246 248 250 254 259 259 261 279 281 287 286 287 286 289 285 285 288 293 292 299 302 301 303 307 318 321 316 314 325
236 236 237 237 235 233 229 227 226 221 206 228 232 237 247 242 248 249 248 249 250 250 254 257 271 273 275 281 282 281 280 284 284 288 289 291 297 296 303 303 305 318 326 332 336 302 336
214 231 233 230 227 227 223 219 221 219 218 221 235 240 243 248 252 252 248 247 251 251 257 260 258 267 268 268 270 274 277 279 278 284 290 289 295 290 298 303 305 322 324 334 309 304 342
195 206 225 221 223 221 218 217 219 217 215 220 237 236 239 245 257 260 254 256 249 249 254 262 254 260 262 261 267 273 275 275 279 286 290 288 298 298 299 299 284 341 341 325 320 321 341
190 188 209 213 215 215 213 214 215 217 218 223 239 239 242 244 249 258 264 258 257 258 253 253 260 259 259 261 265 273 274 278 278 281 289 288 293 301 296 303 318 320 316 324 324 327 334